Time,TemperatureF,DewpointF,PressureIn,WindDirection,WindDirectionDegrees,WindSpeedMPH,WindSpeedGustMPH,Humidity,HourlyPrecipIn,Conditions,Clouds,dailyrainin,SoftwareType,DateUTC
2013-07-14 00:02:00,66.3,65.0,30.31,SSE,147,5.0,11.0,94,0.00,,,0.00,weatherlink.com 1.10,2013-07-14 04:02:00,
2013-07-14 00:17:00,66.4,65.0,30.31,South,183,1.0,10.0,94,0.00,,,0.00,weatherlink.com 1.10,2013-07-14 04:17:00,
2013-07-14 00:32:00,66.4,65.0,30.31,SE,136,3.0,6.0,94,0.00,,,0.00,weatherlink.com 1.10,2013-07-14 04:32:00,
2013-07-14 00:47:00,66.3,65.0,30.31,SE,146,4.0,9.0,95,0.00,,,0.00,weatherlink.com 1.10,2013-07-14 04:47:00,
2013-07-14 01:02:00,66.4,65.0,30.31,SSE,159,3.0,12.0,95,0.00,,,0.00,weatherlink.com 1.10,2013-07-14 05:02:00,
2013-07-14 01:17:00,66.4,65.0,30.31,ESE,121,2.0,13.0,94,0.00,,,0.00,weatherlink.com 1.10,2013-07-14 05:17:00,
2013-07-14 01:32:00,66.5,65.0,30.30,SE,144,6.0,16.0,94,0.00,,,0.00,weatherlink.com 1.10,2013-07-14 05:32:00,
2013-07-14 01:47:00,66.6,65.0,30.31,SE,141,8.0,14.0,94,0.00,,,0.00,weatherlink.com 1.10,2013-07-14 05:47:00,
2013-07-14 02:02:00,66.4,65.0,30.31,SSE,159,7.0,10.0,94,0.01,,,0.01,weatherlink.com 1.10,2013-07-14 06:02:00,
2013-07-14 02:17:00,66.3,65.0,30.31,SE,124,6.0,11.0,94,0.01,,,0.01,weatherlink.com 1.10,2013-07-14 06:17:00,
2013-07-14 02:32:00,66.3,65.0,30.31,SE,139,2.0,9.0,95,0.01,,,0.00,weatherlink.com 1.10,2013-07-14 06:32:00,
2013-07-14 02:47:00,66.2,65.0,30.31,SE,134,0.0,8.0,95,0.01,,,0.00,weatherlink.com 1.10,2013-07-14 06:47:00,
2013-07-14 03:02:00,66.4,65.0,30.31,ESE,123,4.0,8.0,95,0.00,,,0.00,weatherlink.com 1.10,2013-07-14 07:02:00,
2013-07-14 03:17:00,66.3,65.0,30.30,SE,133,1.0,12.0,94,0.00,,,0.00,weatherlink.com 1.10,2013-07-14 07:17:00,
2013-07-14 03:32:00,66.2,65.0,30.31,SSE,159,1.0,16.0,95,0.00,,,0.00,weatherlink.com 1.10,2013-07-14 07:32:00,
2013-07-14 03:48:00,66.1,65.0,30.31,SE,135,1.0,15.0,95,0.00,,,0.00,weatherlink.com 1.10,2013-07-14 07:48:00,
2013-07-14 04:03:00,66.0,65.0,30.31,SSE,162,1.0,16.0,95,0.00,,,0.00,weatherlink.com 1.10,2013-07-14 08:03:00,
2013-07-14 04:18:00,66.0,65.0,30.31,SE,137,3.0,11.0,95,0.00,,,0.00,weatherlink.com 1.10,2013-07-14 08:18:00,
2013-07-14 04:33:00,65.9,65.0,30.31,SE,144,2.0,10.0,95,0.00,,,0.00,weatherlink.com 1.10,2013-07-14 08:33:00,
2013-07-14 04:48:00,65.8,64.0,30.32,ESE,122,3.0,8.0,95,0.00,,,0.00,weatherlink.com 1.10,2013-07-14 08:48:00,
2013-07-14 05:03:00,65.6,64.0,30.32,SSE,157,3.0,12.0,95,0.00,,,0.00,weatherlink.com 1.10,2013-07-14 09:03:00,
2013-07-14 05:18:00,65.4,64.0,30.33,South,177,0.0,14.0,95,0.00,,,0.00,weatherlink.com 1.10,2013-07-14 09:18:00,
2013-07-14 05:33:00,65.3,64.0,30.34,SE,136,2.0,10.0,94,0.00,,,0.00,weatherlink.com 1.10,2013-07-14 09:33:00,
2013-07-14 05:48:00,65.2,64.0,30.34,ESE,123,3.0,9.0,94,0.00,,,0.00,weatherlink.com 1.10,2013-07-14 09:48:00,
2013-07-14 06:03:00,65.2,64.0,30.34,SSE,154,3.0,7.0,94,0.00,,,0.00,weatherlink.com 1.10,2013-07-14 10:03:00,
2013-07-14 06:18:00,65.1,63.0,30.35,SSE,155,3.0,17.0,94,0.00,,,0.00,weatherlink.com 1.10,2013-07-14 10:18:00,
2013-07-14 06:33:00,65.1,63.0,30.35,SE,125,1.0,15.0,94,0.00,,,0.00,weatherlink.com 1.10,2013-07-14 10:33:00,
2013-07-14 06:48:00,65.0,63.0,30.36,West,278,1.0,13.0,94,0.00,,,0.00,weatherlink.com 1.10,2013-07-14 10:48:00,
2013-07-14 07:03:00,65.2,64.0,30.36,SSE,162,4.0,13.0,94,0.00,,,0.00,weatherlink.com 1.10,2013-07-14 11:03:00,
2013-07-14 07:18:00,65.1,63.0,30.37,SSW,198,4.0,12.0,94,0.00,,,0.00,weatherlink.com 1.10,2013-07-14 11:18:00,
2013-07-14 07:33:00,64.9,64.0,30.37,ESE,122,3.0,13.0,95,0.00,,,0.00,weatherlink.com 1.10,2013-07-14 11:33:00,
2013-07-14 07:48:00,64.9,64.0,30.38,South,174,5.0,5.0,95,0.00,,,0.00,weatherlink.com 1.10,2013-07-14 11:48:00,
2013-07-14 08:03:00,65.2,64.0,30.38,SSE,155,1.0,6.0,95,0.00,,,0.00,weatherlink.com 1.10,2013-07-14 12:03:00,
2013-07-14 08:18:00,65.6,64.0,30.38,SE,144,2.0,11.0,95,0.00,,,0.00,weatherlink.com 1.10,2013-07-14 12:18:00,
2013-07-14 08:33:00,66.0,64.0,30.38,SSE,166,4.0,18.0,94,0.00,,,0.00,weatherlink.com 1.10,2013-07-14 12:33:00,
2013-07-14 08:48:00,66.0,64.0,30.39,SSE,159,2.0,16.0,94,0.00,,,0.00,weatherlink.com 1.10,2013-07-14 12:48:00,
2013-07-14 09:03:00,66.1,64.0,30.39,South,179,4.0,15.0,94,0.00,,,0.00,weatherlink.com 1.10,2013-07-14 13:03:00,
2013-07-14 09:18:00,66.3,65.0,30.40,NNE,15,4.0,13.0,94,0.00,,,0.00,weatherlink.com 1.10,2013-07-14 13:18:00,
2013-07-14 09:33:00,66.8,65.0,30.40,ESE,111,5.0,15.0,94,0.00,,,0.00,weatherlink.com 1.10,2013-07-14 13:33:00,
2013-07-14 09:48:00,67.0,65.0,30.40,SE,143,1.0,14.0,93,0.00,,,0.00,weatherlink.com 1.10,2013-07-14 13:48:00,
2013-07-14 10:03:00,67.8,66.0,30.40,SSE,148,2.0,18.0,92,0.00,,,0.00,weatherlink.com 1.10,2013-07-14 14:03:00,
2013-07-14 10:18:00,68.8,66.0,30.41,SSE,166,5.0,15.0,90,0.00,,,0.00,weatherlink.com 1.10,2013-07-14 14:18:00,
2013-07-14 10:33:00,69.4,67.0,30.41,SE,129,0.0,15.0,91,0.00,,,0.00,weatherlink.com 1.10,2013-07-14 14:33:00,
2013-07-14 10:48:00,69.4,66.0,30.41,SE,129,6.0,21.0,88,0.00,,,0.00,weatherlink.com 1.10,2013-07-14 14:48:00,
2013-07-14 11:03:00,70.3,67.0,30.41,ESE,122,9.0,11.0,88,0.00,,,0.00,weatherlink.com 1.10,2013-07-14 15:03:00,
2013-07-14 11:18:00,70.1,66.0,30.41,SSW,196,3.0,16.0,87,0.00,,,0.00,weatherlink.com 1.10,2013-07-14 15:18:00,
2013-07-14 11:33:00,70.4,66.0,30.42,ESE,108,4.0,11.0,87,0.00,,,0.00,weatherlink.com 1.10,2013-07-14 15:33:00,
2013-07-14 11:49:00,70.2,66.0,30.42,SE,130,4.0,13.0,86,0.00,,,0.00,weatherlink.com 1.10,2013-07-14 15:49:00,
2013-07-14 12:04:00,70.7,66.0,30.43,SE,139,3.0,11.0,86,0.00,,,0.00,weatherlink.com 1.10,2013-07-14 16:04:00,
2013-07-14 12:19:00,70.7,66.0,30.43,ESE,123,11.0,13.0,85,0.00,,,0.00,weatherlink.com 1.10,2013-07-14 16:19:00,
2013-07-14 12:34:00,71.2,67.0,30.43,SSE,165,3.0,11.0,85,0.00,,,0.00,weatherlink.com 1.10,2013-07-14 16:34:00,
2013-07-14 12:49:00,71.1,66.0,30.43,SE,142,3.0,13.0,84,0.00,,,0.00,weatherlink.com 1.10,2013-07-14 16:49:00,
2013-07-14 13:04:00,71.3,66.0,30.43,East,90,5.0,13.0,83,0.00,,,0.00,weatherlink.com 1.10,2013-07-14 17:04:00,
2013-07-14 13:19:00,72.9,67.0,30.43,ESE,120,0.0,9.0,82,0.00,,,0.00,weatherlink.com 1.10,2013-07-14 17:19:00,
2013-07-14 13:34:00,73.4,66.0,30.42,ESE,118,10.0,16.0,78,0.00,,,0.00,weatherlink.com 1.10,2013-07-14 17:34:00,
2013-07-14 13:49:00,74.0,66.0,30.42,SE,142,10.0,12.0,77,0.00,,,0.00,weatherlink.com 1.10,2013-07-14 17:49:00,
2013-07-14 14:04:00,73.3,67.0,30.42,SSE,153,2.0,17.0,80,0.00,,,0.00,weatherlink.com 1.10,2013-07-14 18:04:00,
2013-07-14 14:19:00,74.7,67.0,30.42,South,183,5.0,10.0,76,0.00,,,0.00,weatherlink.com 1.10,2013-07-14 18:19:00,
2013-07-14 14:34:00,74.7,67.0,30.42,SE,131,6.0,8.0,76,0.00,,,0.00,weatherlink.com 1.10,2013-07-14 18:34:00,
2013-07-14 14:49:00,74.7,66.0,30.41,ESE,106,1.0,18.0,74,0.00,,,0.00,weatherlink.com 1.10,2013-07-14 18:49:00,
2013-07-14 15:04:00,74.7,66.0,30.41,ESE,117,8.0,15.0,74,0.00,,,0.00,weatherlink.com 1.10,2013-07-14 19:04:00,
2013-07-14 15:19:00,74.9,65.0,30.41,ESE,111,3.0,16.0,72,0.00,,,0.00,weatherlink.com 1.10,2013-07-14 19:19:00,
2013-07-14 15:34:00,75.0,66.0,30.40,SSE,155,4.0,15.0,73,0.00,,,0.00,weatherlink.com 1.10,2013-07-14 19:34:00,
2013-07-14 15:49:00,75.6,66.0,30.40,SE,132,4.0,12.0,73,0.00,,,0.00,weatherlink.com 1.10,2013-07-14 19:49:00,
2013-07-14 16:04:00,75.0,67.0,30.40,SE,125,6.0,11.0,75,0.00,,,0.00,weatherlink.com 1.10,2013-07-14 20:04:00,
2013-07-14 16:19:00,75.7,66.0,30.40,SE,133,2.0,11.0,71,0.00,,,0.00,weatherlink.com 1.10,2013-07-14 20:19:00,
2013-07-14 16:34:00,75.5,65.0,30.40,SSE,156,7.0,10.0,69,0.00,,,0.00,weatherlink.com 1.10,2013-07-14 20:34:00,
2013-07-14 16:49:00,74.8,66.0,30.40,SSE,166,4.0,10.0,75,0.00,,,0.00,weatherlink.com 1.10,2013-07-14 20:49:00,
2013-07-14 17:04:00,75.8,65.0,30.39,SSE,153,8.0,11.0,70,0.00,,,0.00,weatherlink.com 1.10,2013-07-14 21:04:00,
2013-07-14 17:19:00,75.4,65.0,30.40,ESE,111,0.0,12.0,70,0.00,,,0.00,weatherlink.com 1.10,2013-07-14 21:19:00,
2013-07-14 17:34:00,74.4,65.0,30.40,SSE,147,4.0,8.0,73,0.00,,,0.00,weatherlink.com 1.10,2013-07-14 21:34:00,
2013-07-14 17:49:00,75.1,66.0,30.40,SE,134,5.0,10.0,72,0.00,,,0.00,weatherlink.com 1.10,2013-07-14 21:49:00,
2013-07-14 18:04:00,75.5,65.0,30.39,NE,43,0.0,11.0,70,0.00,,,0.00,weatherlink.com 1.10,2013-07-14 22:04:00,
2013-07-14 18:19:00,74.6,65.0,30.39,SE,138,0.0,5.0,73,0.00,,,0.00,weatherlink.com 1.10,2013-07-14 22:19:00,
2013-07-14 18:34:00,75.3,66.0,30.39,SSW,197,0.0,8.0,73,0.00,,,0.00,weatherlink.com 1.10,2013-07-14 22:34:00,
2013-07-14 18:49:00,75.1,66.0,30.39,SE,134,0.0,10.0,72,0.00,,,0.00,weatherlink.com 1.10,2013-07-14 22:49:00,
2013-07-14 19:04:00,74.7,65.0,30.39,SSW,205,0.0,10.0,72,0.00,,,0.00,weatherlink.com 1.10,2013-07-14 23:04:00,
2013-07-14 19:19:00,74.3,66.0,30.39,SE,126,0.0,6.0,75,0.00,,,0.00,weatherlink.com 1.10,2013-07-14 23:19:00,
2013-07-14 19:34:00,73.9,66.0,30.39,South,171,2.0,8.0,75,0.00,,,0.00,weatherlink.com 1.10,2013-07-14 23:34:00,
2013-07-14 19:49:00,73.2,65.0,30.40,SSE,162,1.0,5.0,76,0.00,,,0.00,weatherlink.com 1.10,2013-07-14 23:49:00,
2013-07-14 20:04:00,72.5,65.0,30.40,SSE,161,0.0,2.0,78,0.00,,,0.00,weatherlink.com 1.10,2013-07-15 00:04:00,
2013-07-14 20:19:00,71.6,65.0,30.40,SSE,161,0.0,1.0,80,0.00,,,0.00,weatherlink.com 1.10,2013-07-15 00:19:00,
2013-07-14 20:34:00,71.0,65.0,30.40,SSE,152,0.0,1.0,82,0.00,,,0.00,weatherlink.com 1.10,2013-07-15 00:34:00,
2013-07-14 20:49:00,69.8,65.0,30.41,SSE,155,0.0,1.0,84,0.00,,,0.00,weatherlink.com 1.10,2013-07-15 00:49:00,
2013-07-14 21:04:00,68.7,65.0,30.41,SSE,155,0.0,0.0,87,0.00,,,0.00,weatherlink.com 1.10,2013-07-15 01:04:00,
2013-07-14 21:19:00,68.6,65.0,30.42,ESE,116,0.0,5.0,87,0.00,,,0.00,weatherlink.com 1.10,2013-07-15 01:19:00,
2013-07-14 21:34:00,69.0,65.0,30.42,SE,133,0.0,3.0,86,0.00,,,0.00,weatherlink.com 1.10,2013-07-15 01:34:00,
2013-07-14 21:49:00,69.1,65.0,30.42,East,93,0.0,10.0,86,0.00,,,0.00,weatherlink.com 1.10,2013-07-15 01:49:00,
2013-07-14 22:04:00,69.0,65.0,30.43,SSE,162,2.0,5.0,87,0.00,,,0.00,weatherlink.com 1.10,2013-07-15 02:04:00,
2013-07-14 22:19:00,68.6,65.0,30.43,South,174,0.0,0.0,87,0.00,,,0.00,weatherlink.com 1.10,2013-07-15 02:19:00,
2013-07-14 22:34:00,68.0,65.0,30.43,SE,146,0.0,4.0,89,0.00,,,0.00,weatherlink.com 1.10,2013-07-15 02:34:00,
2013-07-14 22:49:00,68.1,65.0,30.43,SSE,147,0.0,3.0,89,0.00,,,0.00,weatherlink.com 1.10,2013-07-15 02:49:00,
2013-07-14 23:04:00,68.0,65.0,30.43,SE,126,0.0,6.0,89,0.00,,,0.00,weatherlink.com 1.10,2013-07-15 03:04:00,
2013-07-14 23:19:00,67.7,65.0,30.43,ESE,107,0.0,8.0,91,0.00,,,0.00,weatherlink.com 1.10,2013-07-15 03:19:00,
2013-07-14 23:34:00,67.8,65.0,30.43,SE,136,2.0,5.0,91,0.00,,,0.00,weatherlink.com 1.10,2013-07-15 03:34:00,
2013-07-14 23:49:00,67.7,65.0,30.43,SE,143,1.0,5.0,91,0.00,,,0.00,weatherlink.com 1.10,2013-07-15 03:49:00,